NOAA 16 DEB, 41354

Orbit data source: Space-Track

NOAA 16 DEB, 41354 is space debris in SSO originally from a launch on Thu, 21 Sep 2000 UTC launched from the Air Force Western Test Range (AFWTR). Debris objects in space refer to the collection of defunct objects orbiting the Earth. Examples of debris include non-operational satellites, rocket bodies, and fragments generated from explosions, collisions, or faulty payload assembly.

Loading next visibility...
Identifier
41354, 2000-055HX
Orbit
SSO
Country
Flag of USUS
Related business
Manufacturer
Unknown
Mission
Spacecraft
Bus & Motor
Unknown
Mass
Unknown
Launch date (UTC)
2000-09-21 (26 years ago)
Launch vehicle
Unknown
Launch site
Air Force Western Test Range (AFWTR)
Object type
Payload
Rocket body
Debris
Shape & HBR
Unknown shape, 0.1 m
Radar Cross Section
Medium (>0.1 m² and <1 m²)

Expand to show TLE details & history
Last TLE update: 15 hours ago

TLE from 15 hours ago
0 NOAA 16 DEB
1 41354U 00055HX  26255.60603317  .00001659  00000-0  74271-3 0  9998
2 41354  98.6546 307.5591 0021885 180.9327 179.1815 14.23788768548206
Epoch: 2026-09-12T14:32Z
TLE epoch observation values (Epoch: 2026-09-12T14:32:41.265Z)
Latitude
Longitude
97.77454°
Altitude
831.228 km
Speed
7.429 km/s
True Right ascension
20h 30m 14s
True Declination
0° 00' 00"
Sunlit
Object was in full shadow at epoch
Visualization orbit readout
Latitude
Unknown
Longitude
Unknown
Altitude
Unknown
Speed
Unknown
Apparent Right ascension
Unknown
Apparent Declination
Unknown
Sunlit
N/A
Visualization observer readout
Local Sidereal Time
22:16:41
Azimuth
Unknown
Elevation
Unknown
Doppler factor
Unknown
Orbital elements
Apogee altitude
825.449 km
Perigee altitude
793.988 km
Semi-major axis
7,187.856 km
Eccentricity
0.00219
Inclination
98.6546°
RAAN
307.5591°
Arg. of periapsis
180.9327°
True anomaly
179.18507°
Mean anomaly
179.1815°
Eccentric anomaly
179.18329°
Mean motion
3.56159 °/min
Orbital period
101.08 mins
BSTAR
0.00074271
Loading maneuver chart data...
Computing Atmospheric mass density...

Documentation

Showing up to 5 results
|